Time,TemperatureF,DewpointF,PressureIn,WindDirection,WindDirectionDegrees,WindSpeedMPH,WindSpeedGustMPH,Humidity,HourlyPrecipIn,Conditions,Clouds,dailyrainin,SolarRadiationWatts/m^2,SoftwareType,DateUTC
2013-12-16 00:01:00,22.6,10.1,30.03,WNW,292,8.1,8.1,58,0.00,RA,,0.00,0.0,WeatherDisplay:10.37,2013-12-16 05:01:00,
2013-12-16 00:02:00,22.6,10.1,30.03,WNW,292,15.4,15.4,58,0.00,RA,,0.00,0.0,WeatherDisplay:10.37,2013-12-16 05:02:00,
2013-12-16 00:07:00,22.6,10.1,30.03,WNW,292,12.7,12.7,58,0.00,RA,,0.00,0.0,WeatherDisplay:10.37,2013-12-16 05:07:00,
2013-12-16 00:12:00,22.6,10.1,30.03,NNW,338,12.7,12.7,58,0.00,CLR,,0.00,0.0,WeatherDisplay:10.37,2013-12-16 05:12:00,
2013-12-16 00:17:00,22.6,10.4,30.03,WNW,292,10.2,10.2,59,0.00,CLR,,0.00,0.0,WeatherDisplay:10.37,2013-12-16 05:17:00,
2013-12-16 00:22:00,22.6,10.4,30.03,WNW,292,12.7,12.7,59,0.00,CLR,,0.00,0.0,WeatherDisplay:10.37,2013-12-16 05:22:00,
2013-12-16 00:27:00,22.5,10.3,30.03,WNW,292,17.3,17.3,59,0.00,CLR,,0.00,0.0,WeatherDisplay:10.37,2013-12-16 05:27:00,
2013-12-16 00:32:00,22.5,10.7,30.03,NNW,338,9.8,9.8,60,0.00,CLR,,0.00,0.0,WeatherDisplay:10.37,2013-12-16 05:32:00,
2013-12-16 00:37:00,22.5,10.7,30.03,NNW,338,10.4,10.4,60,0.00,CLR,,0.00,0.0,WeatherDisplay:10.37,2013-12-16 05:37:00,
2013-12-16 00:42:00,22.5,10.7,30.03,WNW,292,8.1,8.1,60,0.00,CLR,,0.00,0.0,WeatherDisplay:10.37,2013-12-16 05:42:00,
2013-12-16 00:47:00,22.3,10.9,30.03,WNW,292,10.4,10.4,61,0.00,CLR,,0.00,0.0,WeatherDisplay:10.37,2013-12-16 05:47:00,
2013-12-16 00:52:00,22.3,11.2,30.03,WNW,292,8.1,8.1,62,0.00,CLR,,0.00,0.0,WeatherDisplay:10.37,2013-12-16 05:52:00,
2013-12-16 00:57:00,22.3,11.2,30.03,WNW,292,11.5,11.5,62,0.00,CLR,,0.00,0.0,WeatherDisplay:10.37,2013-12-16 05:57:00,
2013-12-16 01:02:00,22.1,11.1,30.03,NNW,338,10.4,10.4,62,0.00,CLR,,0.00,0.0,WeatherDisplay:10.37,2013-12-16 06:02:00,
2013-12-16 01:07:00,22.1,11.1,30.03,WNW,292,12.7,12.7,62,0.00,CLR,,0.00,0.0,WeatherDisplay:10.37,2013-12-16 06:07:00,
2013-12-16 01:12:00,22.1,11.4,30.03,West,270,6.9,6.9,63,0.00,CLR,,0.00,0.0,WeatherDisplay:10.37,2013-12-16 06:12:00,
2013-12-16 01:17:00,22.1,11.4,30.03,West,270,13.8,13.8,63,0.00,CLR,,0.00,0.0,WeatherDisplay:10.37,2013-12-16 06:17:00,
2013-12-16 01:22:00,22.1,11.4,30.03,WNW,292,9.2,9.2,63,0.00,CLR,,0.00,0.0,WeatherDisplay:10.37,2013-12-16 06:22:00,
2013-12-16 01:27:00,22.1,11.4,30.03,WSW,248,5.8,6.0,63,0.00,CLR,,0.00,0.0,WeatherDisplay:10.37,2013-12-16 06:27:00,
2013-12-16 01:32:00,22.1,11.4,30.03,WNW,292,9.2,9.2,63,0.00,CLR,,0.00,0.0,WeatherDisplay:10.37,2013-12-16 06:32:00,
2013-12-16 01:37:00,22.1,11.4,30.03,NW,315,10.4,10.4,63,0.00,CLR,,0.00,0.0,WeatherDisplay:10.37,2013-12-16 06:37:00,
2013-12-16 01:42:00,22.1,11.8,30.03,WNW,292,8.1,8.1,64,0.00,CLR,,0.00,0.0,WeatherDisplay:10.37,2013-12-16 06:42:00,
2013-12-16 01:47:00,22.1,11.8,30.03,WNW,292,12.7,12.7,64,0.00,CLR,,0.00,0.0,WeatherDisplay:10.37,2013-12-16 06:47:00,
2013-12-16 01:52:00,22.1,11.8,30.03,WNW,292,8.1,8.1,64,0.00,CLR,,0.00,0.0,WeatherDisplay:10.37,2013-12-16 06:52:00,
2013-12-16 01:57:00,22.1,11.8,30.03,WNW,292,9.2,9.2,64,0.00,CLR,,0.00,0.0,WeatherDisplay:10.37,2013-12-16 06:57:00,
2013-12-16 02:02:00,22.1,12.1,30.03,WNW,292,6.9,6.9,65,0.00,CLR,,0.00,0.0,WeatherDisplay:10.37,2013-12-16 07:02:00,
2013-12-16 02:07:00,22.1,12.1,30.03,WNW,292,8.1,8.1,65,0.00,CLR,,0.00,0.0,WeatherDisplay:10.37,2013-12-16 07:07:00,
2013-12-16 02:12:00,22.1,12.1,30.03,WNW,292,5.8,6.0,65,0.00,CLR,,0.00,0.0,WeatherDisplay:10.37,2013-12-16 07:12:00,
2013-12-16 02:17:00,22.3,12.6,30.03,WNW,292,10.4,10.4,66,0.00,CLR,,0.00,0.0,WeatherDisplay:10.37,2013-12-16 07:17:00,
2013-12-16 02:22:00,22.3,12.6,30.03,NNW,338,8.1,8.1,66,0.00,CLR,,0.00,0.0,WeatherDisplay:10.37,2013-12-16 07:22:00,
2013-12-16 02:27:00,22.3,12.6,30.03,WNW,292,8.1,8.1,66,0.00,CLR,,0.00,0.0,WeatherDisplay:10.37,2013-12-16 07:27:00,
2013-12-16 02:32:00,22.3,13.0,30.03,WNW,292,5.8,5.8,67,0.00,CLR,,0.00,0.0,WeatherDisplay:10.37,2013-12-16 07:32:00,
2013-12-16 02:37:00,22.3,13.0,30.03,WNW,292,5.8,5.8,67,0.00,CLR,,0.00,0.0,WeatherDisplay:10.37,2013-12-16 07:37:00,
2013-12-16 02:42:00,22.3,13.0,30.03,NNW,338,8.1,8.1,67,0.00,CLR,,0.00,0.0,WeatherDisplay:10.37,2013-12-16 07:42:00,
2013-12-16 02:47:00,22.3,13.3,30.03,WNW,292,4.0,4.0,68,0.00,CLR,,0.00,0.0,WeatherDisplay:10.37,2013-12-16 07:47:00,
2013-12-16 02:52:00,22.3,13.3,30.03,WNW,292,8.1,8.1,68,0.00,CLR,,0.00,0.0,WeatherDisplay:10.37,2013-12-16 07:52:00,
2013-12-16 02:57:00,22.3,13.6,30.03,WSW,248,6.9,6.9,69,0.00,CLR,,0.00,0.0,WeatherDisplay:10.37,2013-12-16 07:57:00,
2013-12-16 03:02:00,22.3,13.6,30.03,WNW,292,6.9,6.9,69,0.00,CLR,,0.00,0.0,WeatherDisplay:10.37,2013-12-16 08:02:00,
2013-12-16 03:07:00,22.3,13.6,30.03,WNW,292,8.1,8.1,69,0.00,CLR,,0.00,0.0,WeatherDisplay:10.37,2013-12-16 08:07:00,
2013-12-16 03:12:00,22.3,14.0,30.03,WNW,292,5.8,5.8,70,0.00,CLR,,0.00,0.0,WeatherDisplay:10.37,2013-12-16 08:12:00,
2013-12-16 03:17:00,22.3,14.0,30.03,WNW,292,6.9,6.9,70,0.00,CLR,,0.00,0.0,WeatherDisplay:10.37,2013-12-16 08:17:00,
2013-12-16 03:22:00,22.3,14.0,30.03,WNW,292,8.1,8.1,70,0.00,CLR,,0.00,0.0,WeatherDisplay:10.37,2013-12-16 08:22:00,
2013-12-16 03:27:00,22.3,14.3,30.03,NNW,338,8.1,8.1,71,0.00,CLR,,0.00,0.0,WeatherDisplay:10.37,2013-12-16 08:27:00,
2013-12-16 03:32:00,22.3,14.3,30.03,NNW,338,6.2,6.2,71,0.00,CLR,,0.00,0.0,WeatherDisplay:10.37,2013-12-16 08:32:00,
2013-12-16 03:37:00,22.3,14.3,30.03,West,270,8.1,8.1,71,0.00,CLR,,0.00,0.0,WeatherDisplay:10.37,2013-12-16 08:37:00,
2013-12-16 03:42:00,22.3,14.6,30.03,WNW,292,8.5,8.5,72,0.00,CLR,,0.00,0.0,WeatherDisplay:10.37,2013-12-16 08:42:00,
2013-12-16 03:47:00,22.3,14.6,30.03,WNW,292,6.9,6.9,72,0.00,CLR,,0.00,0.0,WeatherDisplay:10.37,2013-12-16 08:47:00,
2013-12-16 03:52:00,22.3,14.6,30.03,WNW,292,5.4,5.4,72,0.00,CLR,,0.00,0.0,WeatherDisplay:10.37,2013-12-16 08:52:00,
2013-12-16 03:57:00,22.3,14.6,30.03,West,270,6.9,6.9,72,0.00,CLR,,0.00,0.0,WeatherDisplay:10.37,2013-12-16 08:57:00,
2013-12-16 04:02:00,22.3,14.9,30.03,NNW,338,4.9,4.9,73,0.00,CLR,,0.00,0.0,WeatherDisplay:10.37,2013-12-16 09:02:00,
2013-12-16 04:07:00,22.3,14.9,30.03,NNW,338,6.9,6.9,73,0.00,CLR,,0.00,0.0,WeatherDisplay:10.37,2013-12-16 09:07:00,
2013-12-16 04:12:00,22.3,15.2,30.03,West,270,8.7,8.7,74,0.00,CLR,,0.00,0.0,WeatherDisplay:10.37,2013-12-16 09:12:00,
2013-12-16 04:17:00,22.1,15.1,30.03,WNW,292,8.1,8.1,74,0.00,CLR,,0.00,0.0,WeatherDisplay:10.37,2013-12-16 09:17:00,
2013-12-16 04:22:00,22.1,15.4,30.03,WNW,292,5.8,5.8,75,0.00,CLR,,0.00,0.0,WeatherDisplay:10.37,2013-12-16 09:22:00,
2013-12-16 04:27:00,22.1,15.7,30.03,WSW,248,4.6,4.6,76,0.00,CLR,,0.00,0.0,WeatherDisplay:10.37,2013-12-16 09:27:00,
2013-12-16 04:32:00,22.1,16.0,30.03,WSW,248,5.8,5.8,77,0.00,CLR,,0.00,0.0,WeatherDisplay:10.37,2013-12-16 09:32:00,
2013-12-16 04:37:00,22.1,16.0,30.03,WNW,292,4.9,4.9,77,0.00,CLR,,0.00,0.0,WeatherDisplay:10.37,2013-12-16 09:37:00,
2013-12-16 04:42:00,21.9,15.8,30.03,WNW,292,5.8,5.8,77,0.00,CLR,,0.00,0.0,WeatherDisplay:10.37,2013-12-16 09:42:00,
2013-12-16 04:47:00,21.9,16.1,30.03,WNW,292,5.8,6.2,78,0.00,CLR,,0.00,0.0,WeatherDisplay:10.37,2013-12-16 09:47:00,
2013-12-16 04:52:00,21.9,16.1,30.03,WNW,292,6.9,6.9,78,0.00,CLR,,0.00,0.0,WeatherDisplay:10.37,2013-12-16 09:52:00,
2013-12-16 04:57:00,21.9,16.4,30.03,WNW,292,5.8,5.8,79,0.00,CLR,,0.00,0.0,WeatherDisplay:10.37,2013-12-16 09:57:00,
2013-12-16 05:02:00,21.9,16.4,30.03,WNW,292,5.8,5.8,79,0.00,CLR,,0.00,0.0,WeatherDisplay:10.37,2013-12-16 10:02:00,
2013-12-16 05:07:00,21.9,16.7,30.03,WNW,292,5.8,5.8,80,0.00,CLR,,0.00,0.0,WeatherDisplay:10.37,2013-12-16 10:07:00,
2013-12-16 05:12:00,21.7,16.5,30.03,WNW,292,5.8,5.8,80,0.00,CLR,,0.00,0.0,WeatherDisplay:10.37,2013-12-16 10:12:00,
2013-12-16 05:17:00,21.7,16.5,30.03,WNW,292,5.8,5.8,80,0.00,CLR,,0.00,0.0,WeatherDisplay:10.37,2013-12-16 10:17:00,
2013-12-16 05:22:00,21.7,16.8,30.03,NNW,338,5.8,5.8,81,0.00,CLR,,0.00,0.0,WeatherDisplay:10.37,2013-12-16 10:22:00,
2013-12-16 05:27:00,21.6,16.6,30.03,WNW,292,5.8,5.8,81,0.00,CLR,,0.00,0.0,WeatherDisplay:10.37,2013-12-16 10:27:00,
2013-12-16 05:32:00,21.6,16.3,30.03,NNW,338,4.6,4.6,80,0.00,CLR,,0.00,0.0,WeatherDisplay:10.37,2013-12-16 10:32:00,
2013-12-16 05:37:00,21.6,16.6,30.03,WNW,292,2.3,2.3,81,0.00,CLR,,0.00,0.0,WeatherDisplay:10.37,2013-12-16 10:37:00,
2013-12-16 05:42:00,21.6,16.6,30.03,NNW,338,2.4,2.4,81,0.00,CLR,,0.00,0.0,WeatherDisplay:10.37,2013-12-16 10:42:00,
2013-12-16 05:47:00,21.4,16.5,30.03,WNW,292,3.5,3.5,81,0.00,CLR,,0.00,0.0,WeatherDisplay:10.37,2013-12-16 10:47:00,
2013-12-16 05:52:00,21.4,16.5,30.03,NNW,338,4.6,4.6,81,0.00,CLR,,0.00,0.0,WeatherDisplay:10.37,2013-12-16 10:52:00,
2013-12-16 05:57:00,21.2,16.6,30.03,WNW,292,4.6,4.6,82,0.00,CLR,,0.00,0.0,WeatherDisplay:10.37,2013-12-16 10:57:00,
2013-12-16 06:02:00,21.0,16.1,30.03,NNW,338,5.8,5.8,81,0.00,CLR,,0.00,0.0,WeatherDisplay:10.37,2013-12-16 11:02:00,
2013-12-16 06:07:00,21.0,16.1,30.03,WNW,292,3.5,3.5,81,0.00,CLR,,0.00,0.0,WeatherDisplay:10.37,2013-12-16 11:07:00,
2013-12-16 06:12:00,20.8,15.9,30.03,NNW,338,5.8,5.8,81,0.00,CLR,,0.00,0.0,WeatherDisplay:10.37,2013-12-16 11:12:00,
2013-12-16 06:17:00,20.7,15.8,30.03,NNW,338,4.6,4.6,81,0.00,CLR,,0.00,0.0,WeatherDisplay:10.37,2013-12-16 11:17:00,
2013-12-16 06:22:00,20.5,15.6,30.03,NNW,338,5.8,5.8,81,0.00,CLR,,0.00,0.0,WeatherDisplay:10.37,2013-12-16 11:22:00,
2013-12-16 06:27:00,20.3,15.4,30.03,NNW,338,4.6,4.6,81,0.00,CLR,,0.00,0.0,WeatherDisplay:10.37,2013-12-16 11:27:00,
2013-12-16 06:32:00,20.3,15.4,30.03,NNW,338,5.8,5.8,81,0.00,CLR,,0.00,0.0,WeatherDisplay:10.37,2013-12-16 11:32:00,
2013-12-16 06:37:00,20.1,15.5,30.03,NNW,338,4.6,4.6,82,0.00,CLR,,0.00,0.0,WeatherDisplay:10.37,2013-12-16 11:37:00,
2013-12-16 06:42:00,20.1,15.5,30.03,WNW,292,3.8,3.8,82,0.00,CLR,,0.00,0.0,WeatherDisplay:10.37,2013-12-16 11:42:00,
2013-12-16 06:47:00,20.1,15.5,30.06,NNW,338,2.3,2.4,82,0.00,CLR,,0.00,0.0,WeatherDisplay:10.37,2013-12-16 11:47:00,
2013-12-16 06:52:00,20.1,15.5,30.06,NNW,338,1.2,1.2,82,0.00,CLR,,0.00,0.0,WeatherDisplay:10.37,2013-12-16 11:52:00,
2013-12-16 06:57:00,20.1,15.8,30.06,NNE,22,2.3,2.3,83,0.00,CLR,,0.00,0.0,WeatherDisplay:10.37,2013-12-16 11:57:00,
2013-12-16 07:02:00,20.1,15.8,30.06,NNW,338,3.5,3.5,83,0.00,CLR,,0.00,0.0,WeatherDisplay:10.37,2013-12-16 12:02:00,
2013-12-16 07:07:00,20.1,15.8,30.06,NNW,338,2.4,2.6,83,0.00,CLR,,0.00,0.0,WeatherDisplay:10.37,2013-12-16 12:07:00,
2013-12-16 07:12:00,19.9,15.6,30.06,NNE,22,2.3,2.3,83,0.00,CLR,,0.00,0.0,WeatherDisplay:10.37,2013-12-16 12:12:00,
2013-12-16 07:17:00,19.8,15.4,30.06,NNE,22,3.8,3.8,83,0.00,CLR,,0.00,0.0,WeatherDisplay:10.37,2013-12-16 12:17:00,
2013-12-16 07:22:00,19.8,15.7,30.06,NNW,338,3.5,3.5,84,0.00,CLR,,0.00,0.0,WeatherDisplay:10.37,2013-12-16 12:22:00,
2013-12-16 07:27:00,19.6,15.3,30.06,NNW,338,3.5,3.5,83,0.00,CLR,,0.00,0.0,WeatherDisplay:10.37,2013-12-16 12:27:00,
2013-12-16 07:32:00,19.6,15.3,30.06,North,0,3.5,3.5,83,0.00,CLR,,0.00,0.0,WeatherDisplay:10.37,2013-12-16 12:32:00,
2013-12-16 07:37:00,19.6,15.5,30.06,NNW,338,3.5,3.5,84,0.00,CLR,,0.00,0.0,WeatherDisplay:10.37,2013-12-16 12:37:00,
2013-12-16 07:42:00,19.6,15.5,30.06,NNW,338,3.5,3.5,84,0.00,CLR,,0.00,0.0,WeatherDisplay:10.37,2013-12-16 12:42:00,
2013-12-16 07:47:00,19.6,15.5,30.06,NNW,338,3.5,3.5,84,0.00,CLR,,0.00,0.0,WeatherDisplay:10.37,2013-12-16 12:47:00,
2013-12-16 07:52:00,19.6,15.5,30.06,NNW,338,3.5,3.5,84,0.00,CLR,,0.00,0.0,WeatherDisplay:10.37,2013-12-16 12:52:00,
2013-12-16 07:57:00,19.8,15.4,30.06,NNW,338,4.6,4.6,83,0.00,CLR,,0.00,0.0,WeatherDisplay:10.37,2013-12-16 12:57:00,
2013-12-16 08:02:00,19.8,15.4,30.06,NNW,338,3.5,3.5,83,0.00,CLR,,0.00,0.0,WeatherDisplay:10.37,2013-12-16 13:02:00,
2013-12-16 08:07:00,19.9,15.6,30.06,NNW,338,1.4,1.4,83,0.00,CLR,,0.00,0.0,WeatherDisplay:10.37,2013-12-16 13:07:00,
2013-12-16 08:12:00,19.9,15.6,30.06,NNW,338,1.6,1.6,83,0.00,CLR,,0.00,0.0,WeatherDisplay:10.37,2013-12-16 13:12:00,
2013-12-16 08:17:00,20.1,15.8,30.06,NNW,338,2.2,2.2,83,0.00,CLR,,0.00,0.0,WeatherDisplay:10.37,2013-12-16 13:17:00,
2013-12-16 08:22:00,20.3,16.0,30.06,NNW,338,2.3,2.3,83,0.00,CLR,,0.00,0.0,WeatherDisplay:10.37,2013-12-16 13:22:00,
2013-12-16 08:27:00,20.3,16.0,30.06,NNW,338,2.4,0.0,83,0.00,CLR,,0.00,0.0,WeatherDisplay:10.37,2013-12-16 13:27:00,
2013-12-16 08:32:00,20.7,16.3,30.06,NNW,338,1.2,0.0,83,0.00,CLR,,0.00,0.0,WeatherDisplay:10.37,2013-12-16 13:32:00,
2013-12-16 08:37:00,20.8,16.2,30.06,NNW,338,2.4,2.4,82,0.00,CLR,,0.00,0.0,WeatherDisplay:10.37,2013-12-16 13:37:00,
2013-12-16 08:42:00,20.8,16.2,30.06,NNW,338,2.4,2.4,82,0.00,CLR,,0.00,0.0,WeatherDisplay:10.37,2013-12-16 13:42:00,
2013-12-16 08:47:00,21.2,16.6,30.09,NNW,338,1.2,0.0,82,0.00,CLR,,0.00,0.0,WeatherDisplay:10.37,2013-12-16 13:47:00,
2013-12-16 08:52:00,21.4,16.5,30.09,ENE,68,2.3,2.3,81,0.00,CLR,,0.00,0.0,WeatherDisplay:10.37,2013-12-16 13:52:00,
2013-12-16 08:57:00,21.4,16.2,30.09,NNE,22,2.3,2.3,80,0.00,CLR,,0.00,0.0,WeatherDisplay:10.37,2013-12-16 13:57:00,
2013-12-16 09:02:00,21.6,16.3,30.09,NNE,22,2.3,2.3,80,0.00,CLR,,0.00,0.0,WeatherDisplay:10.37,2013-12-16 14:02:00,
2013-12-16 09:07:00,21.9,16.7,30.09,ENE,68,2.3,2.3,80,0.00,CLR,,0.00,0.0,WeatherDisplay:10.37,2013-12-16 14:07:00,
2013-12-16 09:12:00,22.1,16.9,30.09,NNE,22,2.3,2.3,80,0.00,CLR,,0.00,0.0,WeatherDisplay:10.37,2013-12-16 14:12:00,
2013-12-16 09:17:00,22.8,17.6,30.09,NNE,22,1.2,0.0,80,0.00,CLR,,0.00,0.0,WeatherDisplay:10.37,2013-12-16 14:17:00,
2013-12-16 09:22:00,22.8,17.0,30.09,NNW,338,2.3,2.3,78,0.00,CLR,,0.00,100.0,WeatherDisplay:10.37,2013-12-16 14:22:00,
2013-12-16 09:27:00,22.6,16.2,30.09,NNE,22,3.5,3.5,76,0.00,CLR,,0.00,100.0,WeatherDisplay:10.37,2013-12-16 14:27:00,
2013-12-16 09:32:00,22.8,16.1,30.12,East,90,2.3,2.3,75,0.00,CLR,,0.00,100.0,WeatherDisplay:10.37,2013-12-16 14:32:00,
2013-12-16 09:37:00,23.2,16.1,30.12,NNW,338,2.3,2.3,74,0.00,CLR,,0.00,100.0,WeatherDisplay:10.37,2013-12-16 14:37:00,
2013-12-16 09:42:00,23.0,15.6,30.12,NNE,22,2.3,2.3,73,0.00,CLR,,0.00,100.0,WeatherDisplay:10.37,2013-12-16 14:42:00,
2013-12-16 09:47:00,23.4,15.7,30.09,ENE,68,1.2,1.6,72,0.00,CLR,,0.00,100.0,WeatherDisplay:10.37,2013-12-16 14:47:00,
2013-12-16 09:52:00,23.5,15.5,30.09,ENE,68,2.3,2.3,71,0.00,CLR,,0.00,100.0,WeatherDisplay:10.37,2013-12-16 14:52:00,
2013-12-16 09:57:00,23.7,15.7,30.09,ENE,68,2.2,2.2,71,0.00,CLR,,0.00,100.0,WeatherDisplay:10.37,2013-12-16 14:57:00,
2013-12-16 10:02:00,23.5,15.2,30.09,ENE,68,2.3,2.3,70,0.00,CLR,,0.00,100.0,WeatherDisplay:10.37,2013-12-16 15:02:00,
2013-12-16 10:07:00,23.7,15.4,30.09,ENE,68,2.3,2.3,70,0.00,CLR,,0.00,100.0,WeatherDisplay:10.37,2013-12-16 15:07:00,
2013-12-16 10:12:00,23.9,15.2,30.09,ESE,112,2.3,2.4,69,0.00,CLR,,0.00,100.0,WeatherDisplay:10.37,2013-12-16 15:12:00,
2013-12-16 10:17:00,23.5,14.5,30.12,ENE,68,2.3,2.4,68,0.00,CLR,,0.00,100.0,WeatherDisplay:10.37,2013-12-16 15:17:00,
2013-12-16 10:22:00,24.1,15.0,30.12,ENE,68,2.9,2.9,68,0.00,CLR,,0.00,100.0,WeatherDisplay:10.37,2013-12-16 15:22:00,
2013-12-16 10:27:00,24.4,15.0,30.12,ENE,68,4.6,4.6,67,0.00,CLR,,0.00,100.0,WeatherDisplay:10.37,2013-12-16 15:27:00,
2013-12-16 10:32:00,25.0,15.2,30.12,East,90,2.3,2.3,66,0.00,CLR,,0.00,100.0,WeatherDisplay:10.37,2013-12-16 15:32:00,
2013-12-16 10:37:00,25.0,14.9,30.12,East,90,3.5,3.5,65,0.00,CLR,,0.00,100.0,WeatherDisplay:10.37,2013-12-16 15:37:00,
2013-12-16 10:42:00,24.4,14.4,30.12,East,90,4.3,4.3,65,0.00,CLR,,0.00,100.0,WeatherDisplay:10.37,2013-12-16 15:42:00,
2013-12-16 10:47:00,24.8,14.7,30.12,ESE,112,4.6,4.6,65,0.00,CLR,,0.00,200.0,WeatherDisplay:10.37,2013-12-16 15:47:00,
2013-12-16 10:52:00,24.6,14.2,30.12,East,90,3.5,3.5,64,0.00,CLR,,0.00,200.0,WeatherDisplay:10.37,2013-12-16 15:52:00,
2013-12-16 10:57:00,25.5,15.0,30.12,East,90,3.5,3.5,64,0.00,CLR,,0.00,200.0,WeatherDisplay:10.37,2013-12-16 15:57:00,
2013-12-16 11:02:00,25.2,14.3,30.09,East,90,4.6,4.6,63,0.00,CLR,,0.00,200.0,WeatherDisplay:10.37,2013-12-16 16:02:00,
2013-12-16 11:07:00,26.2,15.3,30.09,East,90,4.6,4.6,63,0.00,CLR,,0.00,200.0,WeatherDisplay:10.37,2013-12-16 16:07:00,
2013-12-16 11:12:00,26.4,15.2,30.09,ENE,68,3.5,3.5,62,0.00,CLR,,0.00,200.0,WeatherDisplay:10.37,2013-12-16 16:12:00,
2013-12-16 11:17:00,26.2,14.6,30.09,East,90,4.6,4.6,61,0.00,CLR,,0.00,200.0,WeatherDisplay:10.37,2013-12-16 16:17:00,
2013-12-16 11:22:00,26.2,14.2,30.09,ENE,68,3.5,3.5,60,0.00,CLR,,0.00,200.0,WeatherDisplay:10.37,2013-12-16 16:22:00,
2013-12-16 11:27:00,26.1,14.1,30.09,ENE,68,3.5,3.5,60,0.00,CLR,,0.00,200.0,WeatherDisplay:10.37,2013-12-16 16:27:00,
2013-12-16 11:32:00,25.9,13.9,30.09,ENE,68,3.5,3.5,60,0.00,CLR,,0.00,200.0,WeatherDisplay:10.37,2013-12-16 16:32:00,
2013-12-16 11:37:00,25.5,13.5,30.09,ENE,68,5.8,5.8,60,0.00,CLR,,0.00,200.0,WeatherDisplay:10.37,2013-12-16 16:37:00,
2013-12-16 11:42:00,25.7,14.1,30.09,ENE,68,1.4,0.0,61,0.00,CLR,,0.00,200.0,WeatherDisplay:10.37,2013-12-16 16:42:00,
2013-12-16 11:47:00,25.9,13.9,30.09,ENE,68,2.3,2.3,60,0.00,CLR,,0.00,200.0,WeatherDisplay:10.37,2013-12-16 16:47:00,
2013-12-16 11:52:00,26.2,14.2,30.09,SSE,158,2.3,2.3,60,0.04,RA,,0.04,200.0,WeatherDisplay:10.37,2013-12-16 16:52:00,
2013-12-16 11:57:00,26.8,14.7,30.09,ENE,68,3.5,3.5,60,0.04,RA,,0.04,200.0,WeatherDisplay:10.37,2013-12-16 16:57:00,
2013-12-16 12:02:00,27.0,14.9,30.09,East,90,4.6,4.6,60,0.04,CLR,,0.04,200.0,WeatherDisplay:10.37,2013-12-16 17:02:00,
2013-12-16 12:07:00,26.2,14.2,30.09,East,90,3.6,3.6,60,0.04,CLR,,0.04,200.0,WeatherDisplay:10.37,2013-12-16 17:07:00,
2013-12-16 12:12:00,26.4,14.4,30.09,ENE,68,3.5,3.5,60,0.04,CLR,,0.04,200.0,WeatherDisplay:10.37,2013-12-16 17:12:00,
2013-12-16 12:17:00,27.0,14.9,30.06,East,90,3.6,3.6,60,0.04,CLR,,0.04,300.0,WeatherDisplay:10.37,2013-12-16 17:17:00,
2013-12-16 12:22:00,26.8,14.4,30.06,ESE,112,4.9,4.9,59,0.04,CLR,,0.04,200.0,WeatherDisplay:10.37,2013-12-16 17:22:00,
2013-12-16 12:27:00,27.0,14.5,30.06,ESE,112,3.5,3.5,59,0.04,CLR,,0.04,200.0,WeatherDisplay:10.37,2013-12-16 17:27:00,
2013-12-16 12:32:00,26.8,14.7,30.06,ESE,112,4.3,4.3,60,0.04,CLR,,0.04,200.0,WeatherDisplay:10.37,2013-12-16 17:32:00,
2013-12-16 12:37:00,26.4,14.4,30.06,ESE,112,4.6,4.6,60,0.04,CLR,,0.04,200.0,WeatherDisplay:10.37,2013-12-16 17:37:00,
2013-12-16 12:42:00,26.2,14.2,30.06,ENE,68,3.5,3.5,60,0.04,CLR,,0.04,200.0,WeatherDisplay:10.37,2013-12-16 17:42:00,
2013-12-16 12:47:00,26.8,14.7,30.06,ENE,68,3.1,3.1,60,0.04,CLR,,0.04,200.0,WeatherDisplay:10.37,2013-12-16 17:47:00,
2013-12-16 12:52:00,26.4,14.4,30.06,NNE,22,4.6,4.6,60,0.00,CLR,,0.04,200.0,WeatherDisplay:10.37,2013-12-16 17:52:00,
2013-12-16 12:57:00,26.8,15.1,30.06,ENE,68,4.6,4.6,61,0.00,CLR,,0.04,200.0,WeatherDisplay:10.37,2013-12-16 17:57:00,
2013-12-16 13:02:00,26.1,14.4,30.06,ENE,68,3.5,3.5,61,0.00,CLR,,0.04,200.0,WeatherDisplay:10.37,2013-12-16 18:02:00,
2013-12-16 13:07:00,25.7,14.1,30.06,East,90,5.8,5.8,61,0.00,CLR,,0.04,200.0,WeatherDisplay:10.37,2013-12-16 18:07:00,
2013-12-16 13:12:00,25.7,14.5,30.06,ESE,112,3.5,3.5,62,0.00,CLR,,0.04,100.0,WeatherDisplay:10.37,2013-12-16 18:12:00,
2013-12-16 13:17:00,25.3,14.5,30.06,ESE,112,3.5,3.5,63,0.00,CLR,,0.04,100.0,WeatherDisplay:10.37,2013-12-16 18:17:00,
2013-12-16 13:22:00,25.5,15.0,30.06,ENE,68,4.6,4.6,64,0.00,CLR,,0.04,100.0,WeatherDisplay:10.37,2013-12-16 18:22:00,
2013-12-16 13:27:00,25.7,15.2,30.06,East,90,2.3,2.3,64,0.00,CLR,,0.04,200.0,WeatherDisplay:10.37,2013-12-16 18:27:00,
2013-12-16 13:32:00,25.7,15.2,30.06,East,90,2.3,2.3,64,0.00,CLR,,0.04,200.0,WeatherDisplay:10.37,2013-12-16 18:32:00,
2013-12-16 13:37:00,25.7,15.2,30.06,East,90,4.6,4.6,64,0.00,CLR,,0.04,200.0,WeatherDisplay:10.37,2013-12-16 18:37:00,
2013-12-16 13:42:00,25.3,14.9,30.06,ESE,112,4.6,4.6,64,0.00,CLR,,0.04,200.0,WeatherDisplay:10.37,2013-12-16 18:42:00,
2013-12-16 13:47:00,25.2,14.7,30.06,East,90,4.6,4.6,64,0.00,CLR,,0.04,200.0,WeatherDisplay:10.37,2013-12-16 18:47:00,
2013-12-16 13:52:00,25.2,14.7,30.06,East,90,5.8,5.8,64,0.00,CLR,,0.04,200.0,WeatherDisplay:10.37,2013-12-16 18:52:00,
2013-12-16 13:57:00,25.2,15.0,30.06,ESE,112,4.9,4.9,65,0.00,CLR,,0.04,200.0,WeatherDisplay:10.37,2013-12-16 18:57:00,
2013-12-16 14:02:00,25.0,14.9,30.03,ESE,112,4.6,4.6,65,0.00,CLR,,0.04,200.0,WeatherDisplay:10.37,2013-12-16 19:02:00,
2013-12-16 14:07:00,24.8,14.7,30.03,ESE,112,6.9,6.9,65,0.00,CLR,,0.04,200.0,WeatherDisplay:10.37,2013-12-16 19:07:00,
2013-12-16 14:12:00,24.6,14.9,30.03,East,90,4.6,4.6,66,0.00,CLR,,0.04,200.0,WeatherDisplay:10.37,2013-12-16 19:12:00,
2013-12-16 14:17:00,24.8,15.0,30.03,ESE,112,4.6,4.6,66,0.00,CLR,,0.04,200.0,WeatherDisplay:10.37,2013-12-16 19:17:00,
2013-12-16 14:22:00,24.8,15.4,30.03,East,90,4.6,4.6,67,0.00,CLR,,0.04,200.0,WeatherDisplay:10.37,2013-12-16 19:22:00,
2013-12-16 14:27:00,24.8,15.4,30.03,ENE,68,5.8,5.8,67,0.00,CLR,,0.04,200.0,WeatherDisplay:10.37,2013-12-16 19:27:00,
2013-12-16 14:32:00,24.8,15.4,30.03,ESE,112,5.8,5.8,67,0.00,CLR,,0.04,200.0,WeatherDisplay:10.37,2013-12-16 19:32:00,
2013-12-16 14:37:00,25.0,15.6,30.03,ESE,112,3.5,3.5,67,0.00,CLR,,0.04,200.0,WeatherDisplay:10.37,2013-12-16 19:37:00,
2013-12-16 14:42:00,24.8,15.7,30.03,ENE,68,5.8,5.8,68,0.00,CLR,,0.04,100.0,WeatherDisplay:10.37,2013-12-16 19:42:00,
2013-12-16 14:47:00,24.8,15.7,30.03,ENE,68,3.5,3.5,68,0.00,CLR,,0.04,100.0,WeatherDisplay:10.37,2013-12-16 19:47:00,
2013-12-16 14:52:00,24.6,15.9,30.03,ENE,68,3.5,3.5,69,0.00,FEW,,0.04,100.0,WeatherDisplay:10.37,2013-12-16 19:52:00,
2013-12-16 14:57:00,24.6,16.2,30.03,ENE,68,4.6,4.6,70,0.00,FEW,,0.04,100.0,WeatherDisplay:10.37,2013-12-16 19:57:00,
2013-12-16 15:02:00,24.4,16.1,30.03,ESE,112,5.8,5.8,70,0.00,SCT,,0.04,100.0,WeatherDisplay:10.37,2013-12-16 20:02:00,
2013-12-16 15:07:00,24.6,16.6,30.03,NNE,22,3.5,3.5,71,0.00,SCT,,0.04,100.0,WeatherDisplay:10.37,2013-12-16 20:07:00,
2013-12-16 15:12:00,24.6,16.6,30.03,ENE,68,4.6,4.6,71,0.00,SCT,,0.04,100.0,WeatherDisplay:10.37,2013-12-16 20:12:00,
2013-12-16 15:17:00,24.6,16.6,30.03,WNW,292,3.5,3.5,71,0.00,SCT,,0.04,100.0,WeatherDisplay:10.37,2013-12-16 20:17:00,
2013-12-16 15:22:00,24.4,16.4,30.03,ESE,112,3.5,3.6,71,0.00,CLR,,0.04,0.0,WeatherDisplay:10.37,2013-12-16 20:22:00,
2013-12-16 15:27:00,24.4,16.7,30.03,ESE,112,4.6,4.6,72,0.00,CLR,,0.04,0.0,WeatherDisplay:10.37,2013-12-16 20:27:00,
2013-12-16 15:32:00,24.4,16.7,30.03,ENE,68,2.3,2.3,72,0.00,CLR,,0.04,0.0,WeatherDisplay:10.37,2013-12-16 20:32:00,
2013-12-16 15:37:00,24.4,17.0,30.03,East,90,2.6,2.6,73,0.00,CLR,,0.04,0.0,WeatherDisplay:10.37,2013-12-16 20:37:00,
2013-12-16 15:42:00,24.3,16.8,30.03,ENE,68,5.8,5.8,73,0.00,CLR,,0.04,0.0,WeatherDisplay:10.37,2013-12-16 20:42:00,
2013-12-16 15:47:00,24.3,16.8,30.03,ENE,68,5.8,5.8,73,0.00,CLR,,0.04,0.0,WeatherDisplay:10.37,2013-12-16 20:47:00,
2013-12-16 15:52:00,24.3,17.2,30.03,ENE,68,5.8,5.8,74,0.00,CLR,,0.04,0.0,WeatherDisplay:10.37,2013-12-16 20:52:00,
2013-12-16 15:57:00,24.1,17.3,30.03,ENE,68,4.6,4.6,75,0.00,CLR,,0.04,0.0,WeatherDisplay:10.37,2013-12-16 20:57:00,
2013-12-16 16:02:00,24.1,17.3,30.03,East,90,3.5,4.0,75,0.00,CLR,,0.04,0.0,WeatherDisplay:10.37,2013-12-16 21:02:00,
2013-12-16 16:07:00,23.9,17.4,30.03,East,90,5.6,5.6,76,0.00,CLR,,0.04,0.0,WeatherDisplay:10.37,2013-12-16 21:07:00,
2013-12-16 16:12:00,23.9,17.7,30.03,East,90,4.6,4.7,77,0.00,CLR,,0.04,0.0,WeatherDisplay:10.37,2013-12-16 21:12:00,
2013-12-16 16:17:00,23.7,17.6,30.03,East,90,5.8,5.8,77,0.00,CLR,,0.04,0.0,WeatherDisplay:10.37,2013-12-16 21:17:00,
2013-12-16 16:22:00,23.7,17.9,30.03,East,90,4.6,4.6,78,0.00,CLR,,0.04,0.0,WeatherDisplay:10.37,2013-12-16 21:22:00,
2013-12-16 16:27:00,23.7,18.2,30.03,East,90,4.6,4.6,79,0.00,CLR,,0.04,0.0,WeatherDisplay:10.37,2013-12-16 21:27:00,
2013-12-16 16:32:00,23.7,18.2,30.03,ENE,68,4.7,4.7,79,0.00,CLR,,0.04,0.0,WeatherDisplay:10.37,2013-12-16 21:32:00,
2013-12-16 16:37:00,23.7,18.5,30.03,ENE,68,3.5,3.5,80,0.00,CLR,,0.04,0.0,WeatherDisplay:10.37,2013-12-16 21:37:00,
2013-12-16 16:42:00,23.5,18.3,30.03,ENE,68,5.8,5.8,80,0.00,CLR,,0.04,0.0,WeatherDisplay:10.37,2013-12-16 21:42:00,
2013-12-16 16:47:00,23.5,18.3,30.03,ENE,68,5.8,5.8,80,0.00,CLR,,0.04,0.0,WeatherDisplay:10.37,2013-12-16 21:47:00,
2013-12-16 16:52:00,23.5,18.3,30.03,ENE,68,4.6,4.6,80,0.00,CLR,,0.04,0.0,WeatherDisplay:10.37,2013-12-16 21:52:00,
2013-12-16 16:57:00,23.4,18.1,30.03,East,90,6.9,6.9,80,0.00,CLR,,0.04,0.0,WeatherDisplay:10.37,2013-12-16 21:57:00,
2013-12-16 17:03:00,23.2,18.2,30.03,ESE,112,5.9,5.9,81,0.00,CLR,,0.04,0.0,WeatherDisplay:10.37,2013-12-16 22:03:00,
2013-12-16 17:08:00,23.2,18.2,30.03,East,90,4.6,4.6,81,0.00,CLR,,0.04,0.0,WeatherDisplay:10.37,2013-12-16 22:08:00,
2013-12-16 17:13:00,23.2,18.2,30.03,East,90,5.8,5.8,81,0.00,CLR,,0.04,0.0,WeatherDisplay:10.37,2013-12-16 22:13:00,
2013-12-16 17:18:00,23.2,18.2,30.03,ESE,112,5.8,5.8,81,0.00,CLR,,0.04,0.0,WeatherDisplay:10.37,2013-12-16 22:18:00,
2013-12-16 17:23:00,23.0,18.3,30.03,ESE,112,5.8,5.8,82,0.00,CLR,,0.04,0.0,WeatherDisplay:10.37,2013-12-16 22:23:00,
2013-12-16 17:28:00,23.0,18.6,30.03,ENE,68,5.8,5.8,83,0.00,CLR,,0.04,0.0,WeatherDisplay:10.37,2013-12-16 22:28:00,
2013-12-16 17:33:00,23.0,18.6,30.03,ESE,112,5.8,5.8,83,0.00,CLR,,0.04,0.0,WeatherDisplay:10.37,2013-12-16 22:33:00,
2013-12-16 17:38:00,23.0,18.9,30.03,ESE,112,9.2,9.2,84,0.00,CLR,,0.04,0.0,WeatherDisplay:10.37,2013-12-16 22:38:00,
2013-12-16 17:43:00,23.0,18.9,30.03,ESE,112,6.9,6.9,84,0.00,CLR,,0.04,0.0,WeatherDisplay:10.37,2013-12-16 22:43:00,
2013-12-16 17:48:00,23.0,18.9,30.03,ESE,112,8.1,8.1,84,0.00,CLR,,0.04,0.0,WeatherDisplay:10.37,2013-12-16 22:48:00,
2013-12-16 17:53:00,23.0,19.2,30.03,ESE,112,6.0,6.0,85,0.00,CLR,,0.04,0.0,WeatherDisplay:10.37,2013-12-16 22:53:00,
2013-12-16 17:58:00,23.0,19.4,30.03,ENE,68,5.8,5.9,86,0.00,CLR,,0.04,0.0,WeatherDisplay:10.37,2013-12-16 22:58:00,
2013-12-16 18:03:00,23.0,19.4,30.03,ESE,112,5.6,5.6,86,0.00,CLR,,0.04,0.0,WeatherDisplay:10.37,2013-12-16 23:03:00,
2013-12-16 18:08:00,22.8,19.5,30.03,ESE,112,5.8,5.8,87,0.00,CLR,,0.04,0.0,WeatherDisplay:10.37,2013-12-16 23:08:00,
2013-12-16 18:13:00,22.8,19.8,30.03,SSE,158,6.9,6.9,88,0.00,CLR,,0.04,0.0,WeatherDisplay:10.37,2013-12-16 23:13:00,
2013-12-16 18:18:00,22.8,20.1,30.03,ESE,112,8.1,8.1,89,0.00,CLR,,0.04,0.0,WeatherDisplay:10.37,2013-12-16 23:18:00,
2013-12-16 18:23:00,23.0,20.5,30.03,East,90,8.1,8.1,90,0.00,CLR,,0.04,0.0,WeatherDisplay:10.37,2013-12-16 23:23:00,
2013-12-16 18:28:00,23.0,20.8,30.03,ESE,112,5.8,5.8,91,0.00,CLR,,0.04,0.0,WeatherDisplay:10.37,2013-12-16 23:28:00,
2013-12-16 18:33:00,23.0,20.8,30.03,ESE,112,6.9,6.9,91,0.00,CLR,,0.04,0.0,WeatherDisplay:10.37,2013-12-16 23:33:00,
2013-12-16 18:38:00,23.2,20.9,30.03,ESE,112,4.9,4.9,91,0.00,CLR,,0.04,0.0,WeatherDisplay:10.37,2013-12-16 23:38:00,
2013-12-16 18:43:00,23.2,21.2,30.03,ESE,112,5.9,5.9,92,0.00,CLR,,0.04,0.0,WeatherDisplay:10.37,2013-12-16 23:43:00,
2013-12-16 18:48:00,23.2,21.5,30.03,ESE,112,4.6,4.6,93,0.00,CLR,,0.04,0.0,WeatherDisplay:10.37,2013-12-16 23:48:00,
2013-12-16 18:53:00,23.2,21.5,30.03,East,90,6.9,6.9,93,0.00,CLR,,0.04,0.0,WeatherDisplay:10.37,2013-12-16 23:53:00,
2013-12-16 18:58:00,23.4,21.9,30.03,East,90,5.4,5.6,94,0.00,CLR,,0.04,0.0,WeatherDisplay:10.37,2013-12-16 23:58:00,
2013-12-16 19:03:00,23.4,21.9,30.03,ESE,112,6.4,6.4,94,0.00,CLR,,0.04,0.0,WeatherDisplay:10.37,2013-12-17 00:03:00,
2013-12-16 19:08:00,23.4,22.1,30.03,East,90,8.1,8.1,95,0.00,CLR,,0.04,0.0,WeatherDisplay:10.37,2013-12-17 00:08:00,
2013-12-16 19:13:00,23.4,22.1,30.03,ENE,68,5.8,5.8,95,0.00,CLR,,0.04,0.0,WeatherDisplay:10.37,2013-12-17 00:13:00,
2013-12-16 19:18:00,23.4,22.4,30.03,ENE,68,5.8,5.8,96,0.00,CLR,,0.04,0.0,WeatherDisplay:10.37,2013-12-17 00:18:00,
2013-12-16 19:23:00,23.4,22.4,30.03,ESE,112,5.8,5.8,96,0.00,CLR,,0.04,0.0,WeatherDisplay:10.37,2013-12-17 00:23:00,
2013-12-16 19:28:00,23.4,22.6,30.03,ENE,68,6.9,6.9,97,0.00,CLR,,0.04,0.0,WeatherDisplay:10.37,2013-12-17 00:28:00,
2013-12-16 19:33:00,23.4,22.6,30.03,ESE,112,5.8,5.8,97,0.00,CLR,,0.04,0.0,WeatherDisplay:10.37,2013-12-17 00:33:00,
2013-12-16 19:38:00,23.5,22.8,30.03,ENE,68,5.8,5.8,97,0.00,CLR,,0.04,0.0,WeatherDisplay:10.37,2013-12-17 00:38:00,
2013-12-16 19:43:00,23.5,22.8,30.03,SSE,158,3.6,3.8,97,0.00,CLR,,0.04,0.0,WeatherDisplay:10.37,2013-12-17 00:43:00,
2013-12-16 19:48:00,23.5,23.1,30.03,ESE,112,5.8,5.8,98,0.00,CLR,,0.04,0.0,WeatherDisplay:10.37,2013-12-17 00:48:00,
2013-12-16 19:53:00,23.5,23.1,30.03,ESE,112,5.8,5.8,98,0.00,CLR,,0.04,0.0,WeatherDisplay:10.37,2013-12-17 00:53:00,
2013-12-16 19:58:00,23.5,23.1,30.03,ESE,112,3.5,3.5,98,0.00,CLR,,0.04,0.0,WeatherDisplay:10.37,2013-12-17 00:58:00,
2013-12-16 20:03:00,23.7,23.2,30.03,ESE,112,4.6,4.6,98,0.00,CLR,,0.04,0.0,WeatherDisplay:10.37,2013-12-17 01:03:00,
2013-12-16 20:08:00,23.7,23.2,30.03,ESE,112,3.5,3.5,98,0.00,CLR,,0.04,0.0,WeatherDisplay:10.37,2013-12-17 01:08:00,
2013-12-16 20:13:00,23.9,23.4,30.03,ESE,112,5.8,5.8,98,0.00,CLR,,0.04,0.0,WeatherDisplay:10.37,2013-12-17 01:13:00,
2013-12-16 20:18:00,23.9,23.4,30.03,SSE,158,4.6,4.6,98,0.00,CLR,,0.04,0.0,WeatherDisplay:10.37,2013-12-17 01:18:00,
2013-12-16 20:23:00,23.9,23.4,30.03,ESE,112,5.8,5.8,98,0.00,CLR,,0.04,0.0,WeatherDisplay:10.37,2013-12-17 01:23:00,
2013-12-16 20:25:00,23.9,23.4,30.03,ESE,112,6.9,6.9,98,0.00,CLR,,0.04,0.0,WeatherDisplay:10.37,2013-12-17 01:25:00,
2013-12-16 20:30:00,24.1,23.6,30.03,ESE,112,5.8,5.8,98,0.00,CLR,,0.04,0.0,WeatherDisplay:10.37,2013-12-17 01:30:00,
2013-12-16 20:35:00,24.3,23.8,30.00,ESE,112,4.6,4.6,98,0.00,CLR,,0.04,0.0,WeatherDisplay:10.37,2013-12-17 01:35:00,
2013-12-16 20:40:00,24.3,23.8,30.00,ESE,112,4.6,4.6,98,0.00,CLR,,0.04,0.0,WeatherDisplay:10.37,2013-12-17 01:40:00,
2013-12-16 20:45:00,24.4,24.0,30.00,ESE,112,4.6,4.6,98,0.00,CLR,,0.04,0.0,WeatherDisplay:10.37,2013-12-17 01:45:00,
2013-12-16 20:50:00,24.4,24.0,30.00,ESE,112,4.6,4.6,98,0.00,CLR,,0.04,0.0,WeatherDisplay:10.37,2013-12-17 01:50:00,
2013-12-16 20:55:00,24.6,24.1,30.00,ESE,122,3.0,6.0,98,0.00,CLR,,0.04,0.0,WeatherDisplay:10.37,2013-12-17 01:55:00,
2013-12-16 21:00:00,24.6,24.1,30.00,ESE,112,5.4,5.4,98,0.00,CLR,,0.04,0.0,WeatherDisplay:10.37,2013-12-17 02:00:00,
2013-12-16 21:05:00,24.6,24.1,30.00,ESE,112,3.6,3.6,98,0.00,CLR,,0.04,0.0,WeatherDisplay:10.37,2013-12-17 02:05:00,
2013-12-16 21:10:00,24.8,24.3,30.00,SE,124,3.0,6.0,98,0.00,CLR,,0.04,0.0,WeatherDisplay:10.37,2013-12-17 02:10:00,
2013-12-16 21:15:00,25.0,24.5,30.00,ESE,112,4.6,4.6,98,0.00,CLR,,0.04,0.0,WeatherDisplay:10.37,2013-12-17 02:15:00,
2013-12-16 21:20:00,25.0,24.5,30.00,ESE,123,2.0,5.0,98,0.00,CLR,,0.04,0.0,WeatherDisplay:10.37,2013-12-17 02:20:00,
2013-12-16 21:25:00,25.2,24.7,30.00,SE,130,3.0,6.0,98,0.00,CLR,,0.04,0.0,WeatherDisplay:10.37,2013-12-17 02:25:00,
2013-12-16 21:30:00,25.3,24.8,30.00,SE,126,3.0,6.0,98,0.00,CLR,,0.04,0.0,WeatherDisplay:10.37,2013-12-17 02:30:00,
2013-12-16 21:35:00,25.3,24.9,29.97,SE,128,3.0,6.0,98,0.00,CLR,,0.04,0.0,WeatherDisplay:10.37,2013-12-17 02:35:00,
2013-12-16 21:40:00,25.3,24.9,29.97,SSE,158,5.8,5.8,98,0.00,CLR,,0.04,0.0,WeatherDisplay:10.37,2013-12-17 02:40:00,
2013-12-16 21:45:00,25.3,24.9,29.97,ESE,112,4.6,4.6,98,0.00,CLR,,0.04,0.0,WeatherDisplay:10.37,2013-12-17 02:45:00,
2013-12-16 21:50:00,25.5,25.0,29.97,SE,125,3.0,6.0,98,0.00,CLR,,0.04,0.0,WeatherDisplay:10.37,2013-12-17 02:50:00,
2013-12-16 21:55:00,25.7,25.2,29.97,ENE,68,6.9,6.9,98,0.00,CLR,,0.04,0.0,WeatherDisplay:10.37,2013-12-17 02:55:00,
2013-12-16 22:00:00,25.8,25.3,29.97,SE,127,3.0,8.0,98,0.00,CLR,,0.04,0.0,WeatherDisplay:10.37,2013-12-17 03:00:00,
2013-12-16 22:05:00,25.9,25.4,29.97,SE,132,3.0,6.0,98,0.00,CLR,,0.04,0.0,WeatherDisplay:10.37,2013-12-17 03:05:00,
2013-12-16 22:10:00,26.1,25.6,29.97,ESE,112,5.8,5.8,98,0.00,CLR,,0.04,0.0,WeatherDisplay:10.37,2013-12-17 03:10:00,
2013-12-16 22:15:00,26.2,25.8,29.97,SSE,158,5.8,5.8,98,0.00,CLR,,0.04,0.0,WeatherDisplay:10.37,2013-12-17 03:15:00,
2013-12-16 22:20:00,26.4,25.9,29.97,SE,127,3.0,7.0,98,0.00,CLR,,0.04,0.0,WeatherDisplay:10.37,2013-12-17 03:20:00,
2013-12-16 22:25:00,26.4,25.9,29.97,ESE,112,5.9,5.9,98,0.00,CLR,,0.04,0.0,WeatherDisplay:10.37,2013-12-17 03:25:00,
2013-12-16 22:30:00,26.8,26.3,29.97,SSE,158,6.9,6.9,98,0.00,CLR,,0.04,0.0,WeatherDisplay:10.37,2013-12-17 03:30:00,
2013-12-16 22:35:00,26.8,26.3,29.97,SE,127,5.0,7.0,98,0.00,CLR,,0.04,0.0,WeatherDisplay:10.37,2013-12-17 03:35:00,
2013-12-16 22:40:00,27.0,26.5,29.97,SSE,158,5.9,5.9,98,0.00,CLR,,0.04,0.0,WeatherDisplay:10.37,2013-12-17 03:40:00,
2013-12-16 22:45:00,27.0,26.5,29.97,SSE,158,4.6,4.6,98,0.00,CLR,,0.04,0.0,WeatherDisplay:10.37,2013-12-17 03:45:00,
2013-12-16 22:50:00,27.2,26.7,29.94,SE,133,5.0,6.0,98,0.00,CLR,,0.04,0.0,WeatherDisplay:10.37,2013-12-17 03:50:00,
2013-12-16 22:55:00,27.3,26.8,29.94,SE,125,5.0,9.0,98,0.00,CLR,,0.04,0.0,WeatherDisplay:10.37,2013-12-17 03:55:00,
2013-12-16 23:00:00,27.5,27.0,29.94,ESE,123,3.0,8.0,98,0.00,CLR,,0.04,0.0,WeatherDisplay:10.37,2013-12-17 04:00:00,
2013-12-16 23:05:00,27.7,27.2,29.94,ESE,112,4.6,4.6,98,0.00,CLR,,0.04,0.0,WeatherDisplay:10.37,2013-12-17 04:05:00,
2013-12-16 23:10:00,27.9,27.4,29.94,SSE,158,5.8,5.8,98,0.00,CLR,,0.04,0.0,WeatherDisplay:10.37,2013-12-17 04:10:00,
2013-12-16 23:15:00,28.0,27.5,29.94,SE,128,5.0,6.0,98,0.00,CLR,,0.04,0.0,WeatherDisplay:10.37,2013-12-17 04:15:00,
2013-12-16 23:20:00,28.2,27.7,29.94,SE,125,3.0,6.0,98,0.00,CLR,,0.04,0.0,WeatherDisplay:10.37,2013-12-17 04:20:00,
2013-12-16 23:25:00,28.2,27.7,29.94,ESE,112,4.6,4.6,98,0.00,CLR,,0.04,0.0,WeatherDisplay:10.37,2013-12-17 04:25:00,
2013-12-16 23:30:00,28.3,27.8,29.94,SE,125,3.0,5.0,98,0.00,CLR,,0.04,0.0,WeatherDisplay:10.37,2013-12-17 04:30:00,
2013-12-16 23:35:00,28.4,27.9,29.94,SSE,158,4.6,4.6,98,0.00,CLR,,0.04,0.0,WeatherDisplay:10.37,2013-12-17 04:35:00,
2013-12-16 23:40:00,28.6,28.1,29.94,SSE,147,3.0,6.0,98,0.00,CLR,,0.04,0.0,WeatherDisplay:10.37,2013-12-17 04:40:00,
2013-12-16 23:45:00,28.6,28.1,29.94,SE,135,5.8,5.8,98,0.00,CLR,,0.04,0.0,WeatherDisplay:10.37,2013-12-17 04:45:00,
2013-12-16 23:50:00,28.8,28.3,29.94,SE,135,4.6,4.6,98,0.00,CLR,,0.04,0.0,WeatherDisplay:10.37,2013-12-17 04:50:00,
2013-12-16 23:55:00,28.8,28.3,29.94,SSE,154,2.0,6.0,98,0.00,CLR,,0.04,0.0,WeatherDisplay:10.37,2013-12-17 04:55:00,